When you browse on this site, cookies collect data to enhance your experience and personalize the content and advertising you see.
Visit our Privacy Policy to learn more. By continuing to use the site, you agree to this use of cookies and data.
  • In Czech Republic
  • List of Countries
  • For 7 days
  • Water Temperature
  • Weather Map
  • Weather Widgets
  • user-avatar
    Login

    Hourly Weather La Ceiba

    Today, 23 October, Wednesday

    Time Temperature Precipitation Wind Pressure Humidity
    00:00 +27°C° 0 mm 1 mps 757 mmHg 90%
    01:00 +27°C° 0.5 mm 1 mps 757 mmHg 90%
    02:00 +27°C° 0.5 mm 1 mps 757 mmHg 90%
    03:00 +26°C° 0.5 mm 1 mps 757 mmHg 90%
    04:00 +26°C° 1 mm 1 mps 757 mmHg 91%
    05:00 +26°C° 1 mm 2 mps 757 mmHg 92%
    06:00 +26°C° 1 mm 2 mps 757 mmHg 93%
    07:00 +28°C° 0.2 mm 2 mps 758 mmHg 87%
    08:00 +30°C° 0.2 mm 2 mps 758 mmHg 80%
    09:00 +32°C° 0.2 mm 2 mps 759 mmHg 74%
    10:00 +32°C° 0.5 mm 2 mps 758 mmHg 77%
    11:00 +32°C° 0.5 mm 2 mps 757 mmHg 79%
    12:00 +31°C° 0.5 mm 2 mps 757 mmHg 82%
    13:00 +31°C° 0.6 mm 1 mps 757 mmHg 86%
    14:00 +30°C° 0.6 mm 1 mps 756 mmHg 90%
    15:00 +27°C° 0.6 mm 0 mps 756 mmHg 93%
    16:00 +29°C° 0.4 mm 1 mps 756 mmHg 95%
    17:00 +28°C° 0.4 mm 1 mps 756 mmHg 96%
    18:00 +27°C° 0.4 mm 1 mps 757 mmHg 98%
    19:00 +27°C° 0.1 mm 1 mps 757 mmHg 97%
    20:00 +27°C° 0.1 mm 1 mps 758 mmHg 97%
    21:00 +27°C° 0.1 mm 1 mps 758 mmHg 97%
    22:00 +26°C° 0 mm 1 mps 758 mmHg 97%
    23:00 +26°C° 0 mm 1 mps 758 mmHg 96%

    Tomorrow, 24 October, Thursday

    Time Temperature Precipitation Wind Pressure Humidity
    00:00 +26°C° 0 mm 1 mps 758 mmHg 96%
    01:00 +26°C° 0 mm 1 mps 757 mmHg 96%
    02:00 +25°C° 0 mm 1 mps 757 mmHg 96%
    03:00 +25°C° 0 mm 1 mps 757 mmHg 96%
    04:00 +25°C° 0 mm 1 mps 757 mmHg 95%
    05:00 +25°C° 0 mm 1 mps 757 mmHg 95%
    06:00 +25°C° 0 mm 1 mps 757 mmHg 95%
    07:00 +28°C° 0 mm 1 mps 758 mmHg 84%
    08:00 +30°C° 0 mm 1 mps 758 mmHg 74%
    09:00 +33°C° 0 mm 1 mps 759 mmHg 63%
    10:00 +34°C° 0.1 mm 1 mps 758 mmHg 59%
    11:00 +36°C° 0.1 mm 2 mps 757 mmHg 55%
    12:00 +37°C° 0.1 mm 3 mps 756 mmHg 51%
    13:00 +36°C° 0.1 mm 3 mps 756 mmHg 56%
    14:00 +35°C° 0.1 mm 3 mps 755 mmHg 60%
    15:00 +34°C° 0.1 mm 3 mps 755 mmHg 65%
    16:00 +32°C° 0.6 mm 4 mps 755 mmHg 75%
    17:00 +29°C° 0.6 mm 4 mps 756 mmHg 85%
    18:00 +27°C° 0.6 mm 4 mps 756 mmHg 96%
    19:00 +27°C° 0.8 mm 4 mps 757 mmHg 96%
    20:00 +27°C° 0.8 mm 4 mps 757 mmHg 96%
    21:00 +26°C° 0.8 mm 4 mps 758 mmHg 96%
    22:00 +26°C° 0.1 mm 3 mps 757 mmHg 96%
    23:00 +26°C° 0.1 mm 3 mps 757 mmHg 97%

    Day after tomorrow, 25 October, Friday

    Time Temperature Precipitation Wind Pressure Humidity
    00:00 +26°C° 0.1 mm 3 mps 757 mmHg 97%
    01:00 +25°C° 0 mm 2 mps 757 mmHg 97%
    02:00 +25°C° 0 mm 2 mps 757 mmHg 97%
    03:00 +25°C° 0 mm 2 mps 757 mmHg 96%
    04:00 +25°C° 0 mm 2 mps 757 mmHg 96%
    05:00 +25°C° 0 mm 1 mps 757 mmHg 96%
    06:00 +25°C° 0 mm 1 mps 757 mmHg 95%
    07:00 +27°C° 0 mm 1 mps 757 mmHg 84%
    08:00 +30°C° 0 mm 1 mps 758 mmHg 72%
    09:00 +33°C° 0 mm 1 mps 758 mmHg 61%
    10:00 +34°C° 0.1 mm 1 mps 757 mmHg 59%
    11:00 +36°C° 0.1 mm 2 mps 757 mmHg 57%
    12:00 +36°C° 0.1 mm 2 mps 756 mmHg 55%
    13:00 +36°C° 0.2 mm 2 mps 755 mmHg 60%
    14:00 +35°C° 0.2 mm 2 mps 755 mmHg 64%
    15:00 +33°C° 0.2 mm 1 mps 754 mmHg 69%
    16:00 +31°C° 0.2 mm 2 mps 755 mmHg 76%
    17:00 +29°C° 0.2 mm 2 mps 755 mmHg 84%
    18:00 +27°C° 0.2 mm 2 mps 755 mmHg 92%
    19:00 +27°C° 0.1 mm 2 mps 756 mmHg 92%
    20:00 +27°C° 0.1 mm 2 mps 756 mmHg 92%
    21:00 +26°C° 0.1 mm 2 mps 757 mmHg 93%
    22:00 +26°C° 0.3 mm 2 mps 757 mmHg 94%
    23:00 +26°C° 0.3 mm 2 mps 757 mmHg 94%

    26 October, Saturday

    Time Temperature Precipitation Wind Pressure Humidity
    00:00 +26°C° 0.3 mm 1 mps 757 mmHg 95%
    01:00 +25°C° 0.1 mm 2 mps 756 mmHg 95%
    02:00 +25°C° 0.1 mm 2 mps 756 mmHg 94%
    03:00 +25°C° 0.1 mm 2 mps 756 mmHg 94%
    04:00 +25°C° 0.1 mm 2 mps 756 mmHg 94%
    05:00 +25°C° 0.1 mm 2 mps 756 mmHg 93%
    06:00 +25°C° 0.1 mm 2 mps 757 mmHg 93%
    07:00 +28°C° 0 mm 2 mps 757 mmHg 82%
    08:00 +31°C° 0 mm 1 mps 757 mmHg 71%
    09:00 +34°C° 0 mm 1 mps 757 mmHg 60%
    10:00 +35°C° 0.2 mm 2 mps 757 mmHg 59%
    11:00 +35°C° 0.2 mm 2 mps 756 mmHg 59%
    12:00 +36°C° 0.2 mm 3 mps 756 mmHg 59%
    13:00 +35°C° 0.6 mm 2 mps 755 mmHg 66%
    14:00 +34°C° 0.6 mm 2 mps 755 mmHg 73%
    15:00 +31°C° 0.6 mm 2 mps 754 mmHg 80%
    16:00 +30°C° 0.3 mm 1 mps 755 mmHg 85%
    17:00 +29°C° 0.3 mm 1 mps 755 mmHg 90%
    18:00 +27°C° 0.3 mm 1 mps 756 mmHg 95%
    19:00 +27°C° 0.7 mm 1 mps 756 mmHg 95%
    20:00 +27°C° 0.7 mm 1 mps 757 mmHg 96%
    21:00 +26°C° 0.7 mm 1 mps 757 mmHg 96%
    22:00 +26°C° 0.4 mm 1 mps 757 mmHg 96%
    23:00 +26°C° 0.4 mm 1 mps 757 mmHg 96%

    27 October, Sunday

    Time Temperature Precipitation Wind Pressure Humidity
    00:00 +26°C° 0.4 mm 1 mps 757 mmHg 96%
    01:00 +26°C° 0.7 mm 2 mps 757 mmHg 96%
    02:00 +25°C° 0.7 mm 2 mps 757 mmHg 96%
    03:00 +25°C° 0.7 mm 3 mps 757 mmHg 95%
    04:00 +25°C° 0.4 mm 3 mps 757 mmHg 95%
    05:00 +25°C° 0.4 mm 4 mps 757 mmHg 96%
    06:00 +25°C° 0.4 mm 4 mps 757 mmHg 96%
    07:00 +27°C° 0.1 mm 4 mps 758 mmHg 88%
    08:00 +29°C° 0.1 mm 4 mps 758 mmHg 80%
    09:00 +32°C° 0.1 mm 4 mps 758 mmHg 72%
    10:00 +32°C° 0 mm 4 mps 758 mmHg 72%
    11:00 +32°C° 0 mm 4 mps 757 mmHg 73%
    12:00 +32°C° 0 mm 4 mps 757 mmHg 73%
    13:00 +32°C° 0.2 mm 4 mps 756 mmHg 76%
    14:00 +31°C° 0.2 mm 3 mps 756 mmHg 79%
    15:00 +30°C° 0.2 mm 3 mps 755 mmHg 82%
    16:00 +29°C° 0.4 mm 2 mps 756 mmHg 87%
    17:00 +28°C° 0.4 mm 1 mps 757 mmHg 92%
    18:00 +27°C° 0.4 mm 1 mps 757 mmHg 97%
    19:00 +26°C° 0.5 mm 1 mps 758 mmHg 97%
    20:00 +26°C° 0.5 mm 1 mps 758 mmHg 97%
    21:00 +24°C° 0.5 mm 0 mps 759 mmHg 97%
    22:00 +25°C° 0.4 mm 1 mps 758 mmHg 97%
    23:00 +25°C° 0.4 mm 1 mps 758 mmHg 97%

    28 October, Monday

    Time Temperature Precipitation Wind Pressure Humidity
    00:00 +25°C° 0.4 mm 1 mps 758 mmHg 97%
    01:00 +25°C° 0.1 mm 1 mps 758 mmHg 96%
    02:00 +25°C° 0.1 mm 1 mps 758 mmHg 96%
    03:00 +25°C° 0.1 mm 1 mps 758 mmHg 96%
    04:00 +25°C° 0.2 mm 2 mps 758 mmHg 96%
    05:00 +25°C° 0.2 mm 2 mps 758 mmHg 95%
    06:00 +25°C° 0.2 mm 2 mps 758 mmHg 95%
    07:00 +27°C° 0.1 mm 2 mps 759 mmHg 86%
    08:00 +29°C° 0.1 mm 2 mps 759 mmHg 77%
    09:00 +32°C° 0.1 mm 2 mps 759 mmHg 69%
    10:00 +33°C° 0.2 mm 3 mps 759 mmHg 70%
    11:00 +33°C° 0.2 mm 3 mps 758 mmHg 72%
    12:00 +33°C° 0.2 mm 3 mps 758 mmHg 73%
    13:00 +31°C° 0.7 mm 3 mps 757 mmHg 76%
    14:00 +31°C° 0.7 mm 2 mps 757 mmHg 79%
    15:00 +30°C° 0.7 mm 2 mps 756 mmHg 82%
    16:00 +29°C° 1.5 mm 2 mps 757 mmHg 87%
    17:00 +28°C° 1.5 mm 1 mps 757 mmHg 92%
    18:00 +26°C° 1.5 mm 1 mps 758 mmHg 97%
    19:00 +26°C° 0.6 mm 1 mps 758 mmHg 97%
    20:00 +26°C° 0.6 mm 1 mps 759 mmHg 97%
    21:00 +25°C° 0.6 mm 2 mps 759 mmHg 97%
    22:00 +25°C° 0 mm 2 mps 759 mmHg 96%
    23:00 +25°C° 0 mm 2 mps 759 mmHg 96%

    29 October, Tuesday

    Time Temperature Precipitation Wind Pressure Humidity
    00:00 +25°C° 0 mm 2 mps 759 mmHg 96%
    01:00 +25°C° 0 mm 2 mps 758 mmHg 96%
    02:00 +25°C° 0 mm 2 mps 758 mmHg 96%
    03:00 +25°C° 0 mm 2 mps 758 mmHg 96%
    04:00 +25°C° 0 mm 2 mps 758 mmHg 96%
    05:00 +25°C° 0 mm 2 mps 758 mmHg 95%
    06:00 +25°C° 0 mm 2 mps 759 mmHg 95%
    07:00 +27°C° 0.4 mm 3 mps 759 mmHg 88%
    08:00 +29°C° 0.4 mm 3 mps 759 mmHg 81%
    09:00 +32°C° 0.4 mm 4 mps 760 mmHg 74%
    10:00 +32°C° 1.5 mm 4 mps 759 mmHg 77%
    11:00 +32°C° 1.5 mm 4 mps 759 mmHg 80%
    12:00 +32°C° 1.5 mm 4 mps 758 mmHg 83%
    13:00 +30°C° 1.3 mm 4 mps 758 mmHg 83%
    14:00 +30°C° 1.3 mm 3 mps 757 mmHg 84%
    15:00 +30°C° 1.3 mm 2 mps 757 mmHg 84%
    16:00 +29°C° 0.7 mm 2 mps 757 mmHg 88%
    17:00 +28°C° 0.7 mm 2 mps 758 mmHg 92%
    18:00 +26°C° 0.7 mm 1 mps 758 mmHg 96%
    Show more